Погода в Эксетере

Великобритания     50°43′08″N   3°30′39″W
темп.,
°C
ветер,
м/с
пор.,
м/с
влажн.,
%
обл.,
%
осадки,
мм/ч
давл.,
гПа
погр.,
м
22 января, сб
сб2200:00+2сз23928 0.0 103942
03:00+2сз34917 0.0 103970
06:00+2сз38920 0.0 1038162
09:00+3сз249148 0.0 1039112
12:00+7сз45755 0.0 1039551
15:00+7ссз35798 0.0 1037508
18:00+2сз22925 0.0 103824
21:00+1сз11935 0.0 103717
23 января, вс
вс2300:00+1с11935 0.0 103717
03:000св11900 0.0 103615
06:000зсз009120 0.0 103515
09:00+1в00915 0.0 103517
12:00+6юв24808 0.0 1034393
15:00+6юв348557 0.0 1032475
18:00+5вюв229090 0.0 103249
21:00+4вюв228788 0.0 103260
24 января, пн
пн2400:00+5в228785 0.0 103277
03:00+3св229051 0.0 103249
06:00+4св228753 0.0 103257
09:00+2с22930 0.0 103440
12:00+6св23790 0.0 1035387
15:00+7св23780 0.0 1035448
18:00+2ссв22920 0.0 103625
21:00+1с22910 0.0 103827
25 января, вт
вт2500:00+1с22912 0.0 103825
03:00+1с22910 0.0 103820
06:00+1с22910 0.0 103822
09:00+2с11900 0.0 103924
12:00+7св12750 0.0 1039296
15:00+8всв11750 0.0 1038334
18:00+4с11870 0.0 103815
21:00+3ссз11890 0.0 103815
26 января, ср
ср2600:00+2сз11885 0.0 103815
03:00+2сз11875 0.0 103815
06:00+1ссз22865 0.0 103715
09:00+2ссз1183100 0.0 103719
12:00+7зсз0073100 0.0 1037179
15:00+7ююв007794 0.0 103664
18:00+3зсз11855 0.0 103515
21:00+2зсз11885 0.0 103514